<?xml version="1.0"?>
<gpx xmlns="http://www.topografix.com/GPX/1/1" xmlns:xsi="http://www.w3.org/2001/XMLSchema-instance" version="1.1" creator="GPX RubyGem 1.0.0 -- http://dougfales.github.io/gpx/" xsi:schemaLocation="http://www.topografix.com/GPX/1/1 http://www.topografix.com/GPX/1/1/gpx.xsd">
  <metadata>
    <name/>
    <time>2026-05-10T04:09:39+00:00</time>
    <bound minlat="90.0" minlon="180.0" maxlat="-90.0" maxlon="-180.0"/>
  </metadata>
  <trk>
    <name/>
    <trkseg>
      <trkpt lat="43.719672" lon="4.146413">
        <time>1970-01-01T00:00:00+00:00</time>
        <ele>18.0</ele>
      </trkpt>
      <trkpt lat="43.719662" lon="4.146414">
        <time>1970-01-01T00:00:00+00:00</time>
        <ele>18.0</ele>
      </trkpt>
      <trkpt lat="43.719606" lon="4.146465">
        <time>1970-01-01T00:00:00+00:00</time>
        <ele>18.0</ele>
      </trkpt>
      <trkpt lat="43.719557" lon="4.146634">
        <time>1970-01-01T00:00:00+00:00</time>
        <ele>19.0</ele>
      </trkpt>
      <trkpt lat="43.719473" lon="4.146803">
        <time>1970-01-01T00:00:00+00:00</time>
        <ele>19.0</ele>
      </trkpt>
      <trkpt lat="43.719398" lon="4.146896">
        <time>1970-01-01T00:00:00+00:00</time>
        <ele>19.0</ele>
      </trkpt>
      <trkpt lat="43.71931" lon="4.147222">
        <time>1970-01-01T00:00:00+00:00</time>
        <ele>19.0</ele>
      </trkpt>
      <trkpt lat="43.719267" lon="4.147591">
        <time>1970-01-01T00:00:00+00:00</time>
        <ele>18.0</ele>
      </trkpt>
      <trkpt lat="43.719272" lon="4.147663">
        <time>1970-01-01T00:00:00+00:00</time>
        <ele>18.0</ele>
      </trkpt>
      <trkpt lat="43.719316" lon="4.147796">
        <time>1970-01-01T00:00:00+00:00</time>
        <ele>18.0</ele>
      </trkpt>
      <trkpt lat="43.719267" lon="4.147863">
        <time>1970-01-01T00:00:00+00:00</time>
        <ele>17.0</ele>
      </trkpt>
      <trkpt lat="43.719083" lon="4.147643">
        <time>1970-01-01T00:00:00+00:00</time>
        <ele>19.0</ele>
      </trkpt>
      <trkpt lat="43.719028" lon="4.14759">
        <time>1970-01-01T00:00:00+00:00</time>
        <ele>19.0</ele>
      </trkpt>
      <trkpt lat="43.718948" lon="4.147558">
        <time>1970-01-01T00:00:00+00:00</time>
        <ele>20.0</ele>
      </trkpt>
      <trkpt lat="43.71886" lon="4.147434">
        <time>1970-01-01T00:00:00+00:00</time>
        <ele>20.0</ele>
      </trkpt>
      <trkpt lat="43.718308" lon="4.146877">
        <time>1970-01-01T00:00:00+00:00</time>
        <ele>25.0</ele>
      </trkpt>
      <trkpt lat="43.717816" lon="4.146518">
        <time>1970-01-01T00:00:00+00:00</time>
        <ele>27.0</ele>
      </trkpt>
      <trkpt lat="43.717707" lon="4.146491">
        <time>1970-01-01T00:00:00+00:00</time>
        <ele>27.0</ele>
      </trkpt>
      <trkpt lat="43.717444" lon="4.146085">
        <time>1970-01-01T00:00:00+00:00</time>
        <ele>26.0</ele>
      </trkpt>
      <trkpt lat="43.717362" lon="4.146107">
        <time>1970-01-01T00:00:00+00:00</time>
        <ele>26.0</ele>
      </trkpt>
      <trkpt lat="43.717262" lon="4.146235">
        <time>1970-01-01T00:00:00+00:00</time>
        <ele>27.0</ele>
      </trkpt>
      <trkpt lat="43.717237" lon="4.14627">
        <time>1970-01-01T00:00:00+00:00</time>
        <ele>27.0</ele>
      </trkpt>
      <trkpt lat="43.717215" lon="4.146361">
        <time>1970-01-01T00:00:00+00:00</time>
        <ele>28.0</ele>
      </trkpt>
      <trkpt lat="43.717225" lon="4.146451">
        <time>1970-01-01T00:00:00+00:00</time>
        <ele>28.0</ele>
      </trkpt>
      <trkpt lat="43.717186" lon="4.14654">
        <time>1970-01-01T00:00:00+00:00</time>
        <ele>29.0</ele>
      </trkpt>
      <trkpt lat="43.71707" lon="4.14666">
        <time>1970-01-01T00:00:00+00:00</time>
        <ele>29.0</ele>
      </trkpt>
      <trkpt lat="43.717027" lon="4.14678">
        <time>1970-01-01T00:00:00+00:00</time>
        <ele>29.0</ele>
      </trkpt>
      <trkpt lat="43.716968" lon="4.146833">
        <time>1970-01-01T00:00:00+00:00</time>
        <ele>30.0</ele>
      </trkpt>
      <trkpt lat="43.716886" lon="4.147044">
        <time>1970-01-01T00:00:00+00:00</time>
        <ele>30.0</ele>
      </trkpt>
      <trkpt lat="43.716887" lon="4.147166">
        <time>1970-01-01T00:00:00+00:00</time>
        <ele>31.0</ele>
      </trkpt>
      <trkpt lat="43.716843" lon="4.147323">
        <time>1970-01-01T00:00:00+00:00</time>
        <ele>33.0</ele>
      </trkpt>
      <trkpt lat="43.716789" lon="4.14738">
        <time>1970-01-01T00:00:00+00:00</time>
        <ele>33.0</ele>
      </trkpt>
      <trkpt lat="43.716704" lon="4.147575">
        <time>1970-01-01T00:00:00+00:00</time>
        <ele>34.0</ele>
      </trkpt>
      <trkpt lat="43.716613" lon="4.147666">
        <time>1970-01-01T00:00:00+00:00</time>
        <ele>34.0</ele>
      </trkpt>
      <trkpt lat="43.716494" lon="4.147699">
        <time>1970-01-01T00:00:00+00:00</time>
        <ele>35.0</ele>
      </trkpt>
      <trkpt lat="43.716298" lon="4.147613">
        <time>1970-01-01T00:00:00+00:00</time>
        <ele>36.0</ele>
      </trkpt>
      <trkpt lat="43.716228" lon="4.147534">
        <time>1970-01-01T00:00:00+00:00</time>
        <ele>37.0</ele>
      </trkpt>
      <trkpt lat="43.716048" lon="4.147599">
        <time>1970-01-01T00:00:00+00:00</time>
        <ele>39.0</ele>
      </trkpt>
      <trkpt lat="43.715937" lon="4.147723">
        <time>1970-01-01T00:00:00+00:00</time>
        <ele>41.0</ele>
      </trkpt>
      <trkpt lat="43.715863" lon="4.147916">
        <time>1970-01-01T00:00:00+00:00</time>
        <ele>42.0</ele>
      </trkpt>
      <trkpt lat="43.715816" lon="4.147939">
        <time>1970-01-01T00:00:00+00:00</time>
        <ele>42.0</ele>
      </trkpt>
      <trkpt lat="43.715768" lon="4.148">
        <time>1970-01-01T00:00:00+00:00</time>
        <ele>43.0</ele>
      </trkpt>
      <trkpt lat="43.715738" lon="4.148113">
        <time>1970-01-01T00:00:00+00:00</time>
        <ele>43.0</ele>
      </trkpt>
      <trkpt lat="43.715421" lon="4.148229">
        <time>1970-01-01T00:00:00+00:00</time>
        <ele>45.0</ele>
      </trkpt>
      <trkpt lat="43.715235" lon="4.148365">
        <time>1970-01-01T00:00:00+00:00</time>
        <ele>45.0</ele>
      </trkpt>
      <trkpt lat="43.715143" lon="4.148363">
        <time>1970-01-01T00:00:00+00:00</time>
        <ele>45.0</ele>
      </trkpt>
      <trkpt lat="43.714981" lon="4.148449">
        <time>1970-01-01T00:00:00+00:00</time>
        <ele>47.0</ele>
      </trkpt>
      <trkpt lat="43.714854" lon="4.148447">
        <time>1970-01-01T00:00:00+00:00</time>
        <ele>47.0</ele>
      </trkpt>
      <trkpt lat="43.714465" lon="4.148752">
        <time>1970-01-01T00:00:00+00:00</time>
        <ele>49.0</ele>
      </trkpt>
      <trkpt lat="43.714246" lon="4.14881">
        <time>1970-01-01T00:00:00+00:00</time>
        <ele>48.0</ele>
      </trkpt>
      <trkpt lat="43.714324" lon="4.148878">
        <time>1970-01-01T00:00:00+00:00</time>
        <ele>49.0</ele>
      </trkpt>
      <trkpt lat="43.714284" lon="4.149053">
        <time>1970-01-01T00:00:00+00:00</time>
        <ele>50.0</ele>
      </trkpt>
      <trkpt lat="43.714294" lon="4.149135">
        <time>1970-01-01T00:00:00+00:00</time>
        <ele>51.0</ele>
      </trkpt>
      <trkpt lat="43.714263" lon="4.149264">
        <time>1970-01-01T00:00:00+00:00</time>
        <ele>51.0</ele>
      </trkpt>
      <trkpt lat="43.714311" lon="4.149305">
        <time>1970-01-01T00:00:00+00:00</time>
        <ele>52.0</ele>
      </trkpt>
      <trkpt lat="43.714309" lon="4.149411">
        <time>1970-01-01T00:00:00+00:00</time>
        <ele>52.0</ele>
      </trkpt>
      <trkpt lat="43.714309" lon="4.149411">
        <time>1970-01-01T00:00:00+00:00</time>
        <ele>52.0</ele>
      </trkpt>
      <trkpt lat="43.714308" lon="4.149479">
        <time>1970-01-01T00:00:00+00:00</time>
        <ele>51.0</ele>
      </trkpt>
      <trkpt lat="43.714321" lon="4.149567">
        <time>1970-01-01T00:00:00+00:00</time>
        <ele>51.0</ele>
      </trkpt>
      <trkpt lat="43.71432" lon="4.149674">
        <time>1970-01-01T00:00:00+00:00</time>
        <ele>50.0</ele>
      </trkpt>
      <trkpt lat="43.714338" lon="4.149805">
        <time>1970-01-01T00:00:00+00:00</time>
        <ele>50.0</ele>
      </trkpt>
      <trkpt lat="43.714397" lon="4.150005">
        <time>1970-01-01T00:00:00+00:00</time>
        <ele>50.0</ele>
      </trkpt>
      <trkpt lat="43.714558" lon="4.150039">
        <time>1970-01-01T00:00:00+00:00</time>
        <ele>50.0</ele>
      </trkpt>
      <trkpt lat="43.714782" lon="4.15016">
        <time>1970-01-01T00:00:00+00:00</time>
        <ele>48.0</ele>
      </trkpt>
      <trkpt lat="43.714784" lon="4.150292">
        <time>1970-01-01T00:00:00+00:00</time>
        <ele>48.0</ele>
      </trkpt>
      <trkpt lat="43.714724" lon="4.15042">
        <time>1970-01-01T00:00:00+00:00</time>
        <ele>47.0</ele>
      </trkpt>
      <trkpt lat="43.714602" lon="4.150585">
        <time>1970-01-01T00:00:00+00:00</time>
        <ele>48.0</ele>
      </trkpt>
      <trkpt lat="43.714652" lon="4.15087">
        <time>1970-01-01T00:00:00+00:00</time>
        <ele>46.0</ele>
      </trkpt>
      <trkpt lat="43.71468" lon="4.150927">
        <time>1970-01-01T00:00:00+00:00</time>
        <ele>46.0</ele>
      </trkpt>
      <trkpt lat="43.715032" lon="4.150648">
        <time>1970-01-01T00:00:00+00:00</time>
        <ele>42.0</ele>
      </trkpt>
      <trkpt lat="43.715189" lon="4.15059">
        <time>1970-01-01T00:00:00+00:00</time>
        <ele>40.0</ele>
      </trkpt>
      <trkpt lat="43.715317" lon="4.150585">
        <time>1970-01-01T00:00:00+00:00</time>
        <ele>38.0</ele>
      </trkpt>
      <trkpt lat="43.715519" lon="4.150618">
        <time>1970-01-01T00:00:00+00:00</time>
        <ele>35.0</ele>
      </trkpt>
      <trkpt lat="43.715724" lon="4.150809">
        <time>1970-01-01T00:00:00+00:00</time>
        <ele>32.0</ele>
      </trkpt>
      <trkpt lat="43.715924" lon="4.151122">
        <time>1970-01-01T00:00:00+00:00</time>
        <ele>29.0</ele>
      </trkpt>
      <trkpt lat="43.716034" lon="4.151231">
        <time>1970-01-01T00:00:00+00:00</time>
        <ele>28.0</ele>
      </trkpt>
      <trkpt lat="43.716152" lon="4.151286">
        <time>1970-01-01T00:00:00+00:00</time>
        <ele>27.0</ele>
      </trkpt>
      <trkpt lat="43.716213" lon="4.151409">
        <time>1970-01-01T00:00:00+00:00</time>
        <ele>25.0</ele>
      </trkpt>
      <trkpt lat="43.716262" lon="4.151362">
        <time>1970-01-01T00:00:00+00:00</time>
        <ele>25.0</ele>
      </trkpt>
      <trkpt lat="43.716452" lon="4.151174">
        <time>1970-01-01T00:00:00+00:00</time>
        <ele>24.0</ele>
      </trkpt>
      <trkpt lat="43.716625" lon="4.150902">
        <time>1970-01-01T00:00:00+00:00</time>
        <ele>26.0</ele>
      </trkpt>
      <trkpt lat="43.716788" lon="4.150761">
        <time>1970-01-01T00:00:00+00:00</time>
        <ele>24.0</ele>
      </trkpt>
      <trkpt lat="43.716925" lon="4.150673">
        <time>1970-01-01T00:00:00+00:00</time>
        <ele>23.0</ele>
      </trkpt>
      <trkpt lat="43.717404" lon="4.150345">
        <time>1970-01-01T00:00:00+00:00</time>
        <ele>22.0</ele>
      </trkpt>
      <trkpt lat="43.71794" lon="4.150048">
        <time>1970-01-01T00:00:00+00:00</time>
        <ele>18.0</ele>
      </trkpt>
      <trkpt lat="43.71823" lon="4.14991">
        <time>1970-01-01T00:00:00+00:00</time>
        <ele>16.0</ele>
      </trkpt>
      <trkpt lat="43.718345" lon="4.14974">
        <time>1970-01-01T00:00:00+00:00</time>
        <ele>16.0</ele>
      </trkpt>
      <trkpt lat="43.718411" lon="4.149603">
        <time>1970-01-01T00:00:00+00:00</time>
        <ele>17.0</ele>
      </trkpt>
      <trkpt lat="43.718504" lon="4.149237">
        <time>1970-01-01T00:00:00+00:00</time>
        <ele>20.0</ele>
      </trkpt>
      <trkpt lat="43.718591" lon="4.14906">
        <time>1970-01-01T00:00:00+00:00</time>
        <ele>18.0</ele>
      </trkpt>
      <trkpt lat="43.718905" lon="4.148778">
        <time>1970-01-01T00:00:00+00:00</time>
        <ele>16.0</ele>
      </trkpt>
      <trkpt lat="43.719069" lon="4.148551">
        <time>1970-01-01T00:00:00+00:00</time>
        <ele>16.0</ele>
      </trkpt>
      <trkpt lat="43.719374" lon="4.148102">
        <time>1970-01-01T00:00:00+00:00</time>
        <ele>16.0</ele>
      </trkpt>
      <trkpt lat="43.719433" lon="4.148047">
        <time>1970-01-01T00:00:00+00:00</time>
        <ele>16.0</ele>
      </trkpt>
      <trkpt lat="43.719267" lon="4.147863">
        <time>1970-01-01T00:00:00+00:00</time>
        <ele>17.0</ele>
      </trkpt>
      <trkpt lat="43.719316" lon="4.147796">
        <time>1970-01-01T00:00:00+00:00</time>
        <ele>18.0</ele>
      </trkpt>
      <trkpt lat="43.719272" lon="4.147663">
        <time>1970-01-01T00:00:00+00:00</time>
        <ele>18.0</ele>
      </trkpt>
      <trkpt lat="43.719267" lon="4.147591">
        <time>1970-01-01T00:00:00+00:00</time>
        <ele>18.0</ele>
      </trkpt>
      <trkpt lat="43.71931" lon="4.147222">
        <time>1970-01-01T00:00:00+00:00</time>
        <ele>19.0</ele>
      </trkpt>
      <trkpt lat="43.719398" lon="4.146896">
        <time>1970-01-01T00:00:00+00:00</time>
        <ele>19.0</ele>
      </trkpt>
      <trkpt lat="43.719473" lon="4.146803">
        <time>1970-01-01T00:00:00+00:00</time>
        <ele>19.0</ele>
      </trkpt>
      <trkpt lat="43.719557" lon="4.146634">
        <time>1970-01-01T00:00:00+00:00</time>
        <ele>19.0</ele>
      </trkpt>
      <trkpt lat="43.719606" lon="4.146465">
        <time>1970-01-01T00:00:00+00:00</time>
        <ele>18.0</ele>
      </trkpt>
      <trkpt lat="43.719662" lon="4.146414">
        <time>1970-01-01T00:00:00+00:00</time>
        <ele>18.0</ele>
      </trkpt>
      <trkpt lat="43.719672" lon="4.146413">
        <time>1970-01-01T00:00:00+00:00</time>
        <ele>18.0</ele>
      </trkpt>
    </trkseg>
  </trk>
</gpx>
